STARLINK-1264 (45382 NORAD) Tracking and Keplerian Element Data

This shows tracking and keplerian element data for the satellite.

Feedback or suggestion? Click here.




ElementValue
Catalog45382
NameSTARLINK-1264
Epoch Orbit1095
Epoch Day145.41667824
Epoch Year2020
RAAN286.7391
Inclination53
Eccentricity0.0002564
Argument of Perigee321.3361
Mean Anonmoly270.946
Mean Motion15.59286234
Decay Rate0.03552377
L11 45382U 20019Y 20145.41667824 .03552377 00000-0 38432-1 0 9997
L22 45382 53.0000 286.7391 0002564 321.3361 270.9460 15.59286234 10952

Live tracking and technical data element details for STARLINK-1264 (NORAD 45382). STARLINK-1264 can be tracked NOW for your location showing map with azimuth and elevation plus other details from your city location.

Track the satellite on the map from your city or location and see movement details for azimuth, elevation, latitude, longitude, range, height, and movement on the map or in text.







IsCatalogInMostPopularTable: catalog: 45382, numindb: 15
Update: records affected: 1



GetName: 45382 STARLINK-1264

Hit Count: updated at: Tue, 26 May 2020 03:49:21 GMT